Meteo Giornale » Osservazioni meteo Stati Uniti (USA) » Morristown
ore: 13:45 - Osservazioni Meteo Morristown
Lat. 40° 48' N Lon. 74° 25' W Alt. 57 metri s.l.m.
27 °C
Molto Nuvoloso
Temp. 24 Ore
20 °C
27 °C
Ovest/Sud-Ovest
13 Km/h
Dew point 25 °C
Umidità 88 %
Visibilità 10 Km
Il sole sorge alle ore 06:24
Il sole tramonta alle ore 19:30
| Data e Ora | Cielo e Fenomeni | T °C | DP °C | Um. % | Pres. hPa | Vis. km | Vento km/h | |
|---|---|---|---|---|---|---|---|---|
| Oggi h: 13:45 | Molto Nuvoloso | 27 | 25 | 88 | 1014 | 10 | O/SO 13 | |
| Oggi h: 12:45 | Molto Nuvoloso | 25 | 24 | 94 | 1015 | 8 | SO 7.4 | |
| Oggi h: 11:45 | Pioggia | 23 | 23 | 100 | 1017 | 8 | SE 7.4 | |
| Oggi h: 10:50 | Coperto | 24 | 23 | 94 | 1017 | 11 | N/NE 9.3 | |
| Oggi h: 09:45 | Coperto | 23 | 22 | 94 | 1016 | 10 | N 5.5 | |
| Oggi h: 08:45 | Coperto | 23 | 22 | 94 | 1016 | 10 | SO 7.4 | |
| Oggi h: 07:45 | Nuvoloso | 21 | 21 | 100 | 1016 | 10 | N 0 | |
| Oggi h: 06:45 | Coperto | 21 | 21 | 100 | 1016 | 11 | N 0 | |
| Oggi h: 06:35 | Coperto | 20 | 20 | 100 | 1016 | 11 | N 0 | |
| Oggi h: 06:15 | Molto Nuvoloso | 20 | 20 | 100 | 1016 | 11 | N 0 | |
| Oggi h: 05:55 | Molto Nuvoloso | 20 | 20 | 100 | 1016 | 11 | N 0 | |
| Oggi h: 05:35 | Molto Nuvoloso | 20 | 20 | 100 | 1016 | 10 | N 0 | |
| Oggi h: 05:15 | Molto Nuvoloso | 20 | 20 | 100 | 1016 | 10 | N 0 | |
| Oggi h: 04:55 | Nuvoloso | 20 | 20 | 100 | 1016 | 10 | N 0 | |
| Oggi h: 04:35 | Molto Nuvoloso | 20 | 20 | 100 | 1016 | 10 | N 0 | |
| Oggi h: 04:15 | Coperto | 20 | 20 | 100 | 1016 | 10 | N 0 | |
| Oggi h: 03:55 | Coperto | 20 | 20 | 100 | 1016 | 10 | N 0 | |
| Oggi h: 03:35 | Coperto | 20 | 20 | 100 | 1016 | 10 | N 0 | |
| Oggi h: 03:15 | Coperto | 20 | 20 | 100 | 1016 | 10 | N 0 | |
| Oggi h: 02:55 | Coperto | 20 | 20 | 100 | 1016 | 10 | N 0 | |
| Oggi h: 02:35 | Coperto | 21 | 21 | 100 | 1017 | 10 | N 0 | |
| Oggi h: 01:55 | Coperto | 21 | 21 | 100 | 1017 | 10 | N 0 | |
| Oggi h: 01:35 | Pioggia | 21 | 21 | 100 | 1017 | 10 | N 0 | |
| Oggi h: 01:15 | Coperto | 21 | 21 | 100 | 1017 | 10 | N 5.5 | |
| Oggi h: 00:55 | Coperto | 21 | 21 | 100 | 1017 | 10 | N 0 | |
| Oggi h: 00:35 | Coperto | 21 | 21 | 100 | 1017 | 10 | N 0 | |
| Oggi h: 00:15 | Pioggia | 21 | 21 | 100 | 1017 | 10 | N 0 | |
| Ieri h: 23:55 | Coperto | 21 | 20 | 94 | 1017 | 10 | N 0 | |
| Ieri h: 23:35 | Coperto | 22 | 20 | 88 | 1017 | 10 | N 0 | |
| Ieri h: 23:15 | Coperto | 21 | 20 | 94 | 1018 | 10 | N 0 | |
| Ieri h: 22:55 | Coperto | 22 | 20 | 88 | 1018 | 10 | N 0 | |
| Ieri h: 22:35 | Coperto | 22 | 20 | 88 | 1018 | 10 | N 5.5 | |
| Ieri h: 21:45 | Coperto | 23 | 20 | 83 | 1018 | 10 | N 5.5 | |
| Ieri h: 20:45 | Coperto | 22 | 21 | 94 | 1018 | 10 | N 0 | |
| Ieri h: 19:45 | Coperto | 24 | 20 | 78 | 1018 | 10 | N 0 | |
| Ieri h: 18:46 | Coperto | 24 | 19 | 73 | 1018 | 10 | SO 7.4 | |
| Ieri h: 17:45 | Molto Nuvoloso | 25 | 19 | 69 | 1019 | 10 | SO 9.3 | |
| Ieri h: 16:45 | Molto Nuvoloso | 25 | 19 | 69 | 1019 | 10 | O 9.3 | |
| Ieri h: 15:45 | Pioggia | 23 | 20 | 83 | 1019 | 11 | N 5.5 | |
| Ieri h: 14:45 | Coperto | 25 | 19 | 69 | 1020 | 10 | O/SO 9.3 | |



